Tracking 27188 objects as of 1-Apr-2023
HD Live streaming from Space Station
objects crossing your sky now

STARLINK-2548

Track STARLINK-2548 now!
10-day predictions
STARLINK-2548 is classified as:


NORAD ID: 48285
Int'l Code: 2021-036K
Perigee: 553.9 km
Apogee: 555.4 km
Inclination: 53.1 °
Period: 95.6 minutes
Semi major axis: 6925 km
RCS: Unknown
Launch date: April 29, 2021
Source: United States (US)
Launch site: AIR FORCE EASTERN TEST RANGE (AFETR)
Your satellite tracking list
Your tracking list is empty




NASA's NSSDC Master Catalog

Two Line Element Set (TLE):
1 48285U 21036K   23090.76548792  .00044601  00000-0  30016-2 0  9998
2 48285  53.0517 222.6416 0001070  83.5320 276.5790 15.06309535107025
Source of the keplerian elements: AFSPC